Simultaneous Nadir Overpasses (SNOs) Predictions

Prediction of SNOs between LANDSAT-8 and METOP-A Satellite Orbit:

Table of predicted SNOs for the next 14.0 days since TLE Epoch: 10/23/2015
Index Date (LANDSAT-8) Time (LANDSAT-8) Lat,Lon (LANDSAT-8) SZA (LANDSAT-8 ) Date (METOP-A) Time (METOP-A) Lat,Lon (METOP-A) SZA (METOP-A ) Distance(km) Time Diff (sec)
1 10/25/2015 01:51:33 -81.17, 12.83 84.44 10/25/2015 01:50:23 -81.16, 12.65 84.50 3.24 70
2 10/25/2015 02:40:59 81.18,-179.43 95.59 10/25/2015 02:41:02 81.18,-179.35 95.61 1.60 3
3 10/27/2015 21:25:49 -81.17, 79.31 83.47 10/27/2015 21:24:40 -81.18, 79.43 83.49 2.04 69
4 10/27/2015 22:15:15 81.18,-112.97 96.56 10/27/2015 22:15:20 81.18,-112.98 96.56 0.50 5
5 10/30/2015 17:00:04 -81.17, 145.68 82.55 10/30/2015 16:58:57 -81.17, 145.79 82.56 1.98 67
6 10/30/2015 17:49:29 81.20, -46.26 97.53 10/30/2015 17:49:36 81.19, -46.28 97.53 0.54 7
7 11/02/2015 12:34:19 -81.18,-147.70 81.62 11/02/2015 12:33:14 -81.18,-147.52 81.62 3.22 65
8 11/02/2015 13:23:45 81.18, 19.96 98.40 11/02/2015 13:23:54 81.19, 20.00 98.42 0.74 9
9 11/05/2015 08:08:35 -81.16, -81.57 80.79 11/05/2015 08:07:33 -81.16, -81.63 80.82 1.05 62




NCC Satellite Simultaneous Nadir Overpasses (SNOs) Prediction Service
